Flag for U.S.A. Weather past 2 weeks in Garland, Texas, U.S.A.

Now
77 °F

Sunny.


Feels Like: 78 °F
Forecast: 61 / 82 °F
Wind: 5 mph from Southeast

Location: Mesquite Metro Airport

Current Time: Sep 23, 2014 at 12:29:31 PM

Latest Report: Sep 23, 2014 at 11:50 AM


Visibility: 10 mi

Pressure: 30.21 "Hg

Humidity: 36%

Dew point: 48 °F

Location of GarlandLocation

Historic Weather in Garland — Graph

°F

Garland temperature yesterday

Maximum temperature yesterday: 88 °F (at 3:50 PM)
Minimum temperature yesterday: 67 °F (at 10:55 PM)
Average temperature yesterday: 76 °F

Past Weeks' High & Low Weather Summary

 TemperatureHumidityPressure
High99 °F (Sep 10, 2:55 PM)100% (Sep 12, 8:50 AM)30.29 "Hg (Sep 12, 8:50 AM)
Low57 °F (Sep 13, 6:47 AM)22% (Sep 22, 3:50 PM)29.75 "Hg (Sep 10, 5:55 PM)
Average76 °F72%30.02 "Hg
* Reported Sep 8 10:50 AM — Sep 23 10:50 AM, Garland, Weather by CustomWeather, © 2014

Note: Actual official high and low records may vary slightly from our data, if they occured in-between our weather recording intervals... More about our weather records

Advertising

Garland weather history for previous 24 hours

 ConditionsComfort  
Time TempWeatherWind HumidityBarometerVisibility
10:50 AM
Sep 23
75 °FSunny.8 mph41%30.21 "Hg10 mi
9:50 AM72 °FSunny.6 mph50%30.21 "Hg10 mi
7:50 AM57 °FClear.No wind88%30.19 "Hg10 mi
6:50 AM57 °FClear.No wind82%30.19 "Hg10 mi
5:35 AM57 °FClear.No wind85%30.18 "Hg10 mi
5:15 AM59 °FClear.No wind79%30.17 "Hg10 mi
4:55 AM58 °FClear.No wind81%30.17 "Hg10 mi
4:15 AM59 °FClear.No wind80%30.16 "Hg10 mi
3:55 AM60 °FClear.No wind76%30.16 "Hg10 mi
3:35 AM62 °FClear.3 mph71%30.16 "Hg10 mi
3:15 AM62 °FClear.3 mph69%30.17 "Hg10 mi
2:55 AM64 °FClear.No wind67%30.17 "Hg10 mi
2:35 AM64 °FClear.3 mph66%30.17 "Hg10 mi
2:15 AM64 °FClear.6 mph65%30.17 "Hg10 mi
1:55 AM65 °FClear.5 mph65%30.17 "Hg10 mi
1:15 AM67 °FClear.6 mph60%30.16 "Hg10 mi
12:55 AM68 °FClear.6 mph59%30.16 "Hg10 mi
12:35 AM68 °FClear.7 mph57%30.16 "Hg10 mi
12:15 AM69 °FClear.8 mph55%30.16 "Hg10 mi
11:55 PM
Sep 22
68 °FClear.6 mph56%30.16 "Hg10 mi
11:35 PM68 °FClear.3 mph57%30.16 "Hg10 mi
11:15 PM67 °FClear.6 mph56%30.16 "Hg10 mi
10:55 PM67 °FClear.3 mph56%30.16 "Hg10 mi
10:35 PM68 °FClear.No wind53%30.16 "Hg10 mi
10:15 PM69 °FClear.No wind53%30.16 "Hg10 mi
9:55 PM69 °FClear.No wind50%30.16 "Hg10 mi
7:50 PM75 °FSunny.3 mph39%30.12 "Hg10 mi
6:50 PM82 °FSunny.6 mph26%30.10 "Hg10 mi
5:50 PM84 °FSunny.3 mph23%30.10 "Hg10 mi
4:50 PM86 °FSunny.7 mph22%30.11 "Hg10 mi
3:50 PM88 °FSunny.9 mph22%30.12 "Hg10 mi
2:50 PM86 °FSunny.10 mph25%30.14 "Hg10 mi
1:50 PM84 °FSunny.7 mph31%30.17 "Hg10 mi
12:50 PM82 °FSunny.9 mph32%30.19 "Hg10 mi
Weather by CustomWeather, © 2014

See weather overviewHow to use our weather pages